カタログに戻る

QPS-SAR-9 SUSANOO-I

運用中科学VLEO
NORAD 63205·PAYLOAD·🇯🇵 Japan

打ち上げ Mar 15, 2025 から Rocket Lab Launch Complex 1

Loading…

次のパス (今後24時間)

TLE

最新Source: Space-Track

元期: Sep 14, 2026, 14:24 UTC

1 63205U 25050A   26257.60051308  .00003725  00000-0  27955-3 0  9991
2 63205  42.0205 327.8679 0004949   2.6845 357.4008 15.03857587 82426

AllMySatでQPS-SAR-9 SUSANOO-Iをリアルタイム追跡

Download on the App Store